This demonstration page uses our WeatherBlox Daily Observations layout. Learn more.

Left ArrowRight Arrow

34.02893, -84.19858

Hourly Observations for June 28, 2020

Temp ( °F °C ) Dew Point ( °F °C ) Humidity (%) Winds ( mph kmh ) Pressure ( in mb ) Visibility ( mi km ) Precip ( " mm )
12:53 am 00:53 Clear 70 21.1 70 21.1 100 100 Calm 30.00 1016 9 14 0.00 0.00
1:53 am 01:53 Clear 70 21.1 70 21.1 100 100 Calm 29.98 1015 8 13 0.00 0.00
2:53 am 02:53 Clear 71 21.7 71 21.7 100 100 SSW 5 7 29.96 1015 9 14 0.00 0.00
3:53 am 03:53 Mostly Clear 71 21.7 71 21.7 100 100 Calm 29.96 1015 7 11 0.00 0.00
4:53 am 04:53 Mostly Cloudy 73 22.8 72 22.2 96 96 SW 3 6 29.98 1015 8 13 0.00 0.00
5:40 am 05:40 Mostly Clear 73 22.8 72 22.2 96 96 WSW 3 6 29.99 1016 8 13 0.00 0.00
5:53 am 05:53 Mostly Clear 72 22.2 71 21.7 97 97 Calm 29.99 1016 7 11 0.00 0.00
6:53 am 06:53 Sunny with Mist and Fog 72 22.2 72 22.2 100 100 SW 5 7 29.99 1016 6 10 0.00 0.00
7:53 am 07:53 Sunny 74 23.3 73 22.8 97 97 W 7 11 30.00 1016 8 13 0.00 0.00
8:53 am 08:53 Sunny 76 24.4 73 22.8 91 91 W 7 11 29.99 1016 10 16 0.00 0.00
9:00 am 09:00 Mostly Sunny 77 25 73 22.8 88 88 W 9 15 30.00 1016 10 16 0.00 0.00
9:15 am 09:15 Mostly Cloudy 77 25 73 22.8 88 88 W 7 11 30.00 1016 10 16 0.00 0.00
9:53 am 09:53 Cloudy 77 25 74 23.3 90 90 WSW 8 13 30.00 1016 10 16 0.00 0.00
10:44 am 10:44 Mostly Cloudy 80 26.7 74 23.3 82 82 W 8 13 29.99 1016 10 16 0.00 0.00
10:53 am 10:53 Mostly Cloudy 79 26.1 74 23.3 85 85 W 8 13 30.00 1016 10 16 0.00 0.00
11:53 am 11:53 Partly Cloudy 81 27.2 74 23.3 79 79 W 7 11 29.98 1015 10 16 0.00 0.00
12:53 pm 12:53 Partly Cloudy 84 28.9 73 22.8 70 70 WSW 9 15 29.97 1015 10 16 0.00 0.00
1:53 pm 13:53 Mostly Sunny 86 30 72 22.2 63 63 WSW 12 19 29.96 1014 10 16 0.00 0.00
2:53 pm 14:53 Mostly Sunny 87 30.6 71 21.7 59 59 WSW 13 20 29.94 1014 10 16 0.00 0.00
3:53 pm 15:53 Mostly Sunny 89 31.7 70 21.1 53 53 W 12 19 29.92 1013 10 16 0.00 0.00
4:53 pm 16:53 Sunny 88 31.1 70 21.1 55 55 W 15 24 29.91 1013 10 16 0.00 0.00
5:53 pm 17:53 Sunny 87 30.6 69 20.6 55 55 W 10 17 29.90 1013 10 16 0.00 0.00
6:53 pm 18:53 Mostly Sunny 86 30 69 20.6 57 57 W 9 15 29.90 1013 10 16 0.00 0.00
7:53 pm 19:53 Mostly Cloudy 86 30 70 21.1 59 59 W 9 15 29.90 1013 10 16 0.00 0.00
8:53 pm 20:53 Clear 83 28.3 69 20.6 63 63 W 7 11 29.90 1013 10 16 0.00 0.00
9:53 pm 21:53 Clear 81 27.2 69 20.6 67 67 WSW 7 11 29.91 1013 10 16 0.00 0.00
10:53 pm 22:53 Clear 79 26.1 69 20.6 72 72 SSW 12 19 29.89 1012 10 16 0.00 0.00
11:53 pm 23:53 Clear 79 26.1 69 20.6 72 72 WNW 7 11 29.92 1013 10 16 0.00 0.00

Powered by AerisWeather